Flag for Germany Weather past 2 weeks in Herrenberg, Baden-Württemberg, Germany

41 °F

Passing clouds.

Feels Like: 39 °F
Forecast: 25 / 39 °F
Wind: 3 mph from Southeast

Location: Stuttgart-Echterdingen

Current Time: Nov 27, 2015 at 1:34:37 PM

Latest Report: Nov 27, 2015 at 1:20 PM

Visibility: N/A

Pressure: 30.04 "Hg

Humidity: 70%

Dew point: 32 °F

Location of HerrenbergLocation

Historic Weather in Herrenberg — Graph


Herrenberg temperature yesterday

Maximum temperature yesterday: 39 °F (at 11:50 AM)
Minimum temperature yesterday: 37 °F (at 12:20 AM)
Average temperature yesterday: 38 °F

Past Weeks' High & Low Weather Summary

High68 °F (Nov 16, 1:20 PM)100% (Nov 13, 12:20 AM)30.45 "Hg (Nov 13, 12:20 AM)
Low23 °F (Nov 24, 2:20 AM)23% (Nov 16, 1:20 PM)29.36 "Hg (Nov 21, 2:50 PM)
Average45 °F80%30.01 "Hg
* Reported Nov 12 12:20 PM — Nov 27 12:20 PM, Herrenberg, Weather by CustomWeather, © 2015

Note: Actual official high and low records may vary slightly from our data, if they occured in-between our weather recording intervals... More about our weather records


Herrenberg weather history for previous 24 hours

Time TempWeatherWind HumidityBarometerVisibility
12:20 PM
Fri, Nov 27
39 °FPassing clouds.2 mph75%30.07 "HgN/A
11:50 AM39 °FScattered clouds.3 mph81%30.07 "HgN/A
11:20 AM37 °FScattered clouds.2 mph87%30.07 "HgN/A
10:50 AM39 °FFog.3 mph81%30.09 "HgN/A
10:20 AM39 °FFog.3 mph81%30.09 "HgN/A
9:50 AM37 °FFog.1 mph87%30.09 "HgN/A
9:20 AM37 °FFog.1 mph93%30.09 "HgN/A
8:50 AM36 °FFog.1 mph93%30.09 "HgN/A
7:50 AM34 °FFog.1 mph100%30.09 "HgN/A
7:20 AM34 °FFog.1 mph100%30.09 "HgN/A
6:50 AM36 °FPassing clouds.2 mph93%30.09 "HgN/A
6:20 AM36 °FFog.2 mph93%30.12 "Hg3 mi
5:50 AM36 °FFog.2 mph100%30.12 "Hg3 mi
4:50 AM36 °FPassing clouds.1 mph100%30.12 "HgN/A
4:20 AM36 °FPassing clouds.1 mph100%30.12 "HgN/A
3:50 AM36 °FPassing clouds.2 mph100%30.12 "HgN/A
3:20 AM36 °FPassing clouds.2 mph100%30.12 "HgN/A
2:50 AM36 °FPassing clouds.2 mph100%30.12 "HgN/A
2:20 AM36 °FPartly cloudy.1 mph100%30.12 "HgN/A
1:50 AM36 °FPartly cloudy.3 mph100%30.12 "HgN/A
1:20 AM36 °FPassing clouds.1 mph100%30.15 "HgN/A
12:50 AM36 °FPassing clouds.2 mph100%30.15 "HgN/A
12:20 AM37 °FPartly cloudy.3 mph93%30.12 "HgN/A
11:50 PM
Thu, Nov 26
37 °FPassing clouds.3 mph93%30.15 "HgN/A
10:20 PM37 °FPassing clouds.5 mph93%30.12 "HgN/A
9:50 PM39 °FPassing clouds.7 mph93%30.12 "HgN/A
9:20 PM39 °FPassing clouds.5 mph93%30.12 "HgN/A
8:50 PM39 °FPassing clouds.5 mph93%30.12 "HgN/A
8:20 PM39 °FPassing clouds.3 mph93%30.12 "HgN/A
7:50 PM39 °FPassing clouds.5 mph93%30.12 "HgN/A
7:20 PM39 °FPassing clouds.3 mph93%30.09 "HgN/A
6:50 PM39 °FPassing clouds.2 mph93%30.09 "HgN/A
6:20 PM39 °FPartly cloudy.2 mph93%30.09 "HgN/A
5:50 PM39 °FPassing clouds.6 mph93%30.07 "HgN/A
5:20 PM39 °FSprinkles. Passing clouds.1 mph93%30.07 "HgN/A
4:50 PM39 °FSprinkles. Passing clouds.6 mph93%30.04 "HgN/A
4:20 PM39 °FBroken clouds.5 mph93%30.04 "HgN/A
3:50 PM39 °FPartly sunny.3 mph93%30.04 "HgN/A
3:20 PM39 °FBroken clouds.3 mph93%30.01 "HgN/A
2:50 PM39 °FBroken clouds.5 mph93%30.01 "HgN/A
2:20 PM37 °FBroken clouds.5 mph100%30.01 "HgN/A
1:50 PM37 °FDrizzle. Partly sunny.6 mph93%29.98 "Hg4 mi
1:20 PM39 °FLight rain. Partly sunny.9 mph93%29.98 "HgN/A
Weather by CustomWeather, © 2015

See weather overviewHow to use our weather pages